Weather History for KEDJ - September, 2013

Change the Weather History Date:

Saturday, September 21, 2013

  Actual Average (KDAY) Record (KDAY)
Temperature  
Mean Temperature 60 °F 63 °F  
Max Temperature 68 °F 74 °F 95 °F (1908)
Min Temperature 51 °F 53 °F 31 °F (1897)
Degree Days  
Heating Degree Days 6 4  
Month to date heating degree days 40  
Since 1 July heating degree days 42  
Cooling Degree Days 0 2  
Month to date cooling degree days 84  
Year to date cooling degree days 866  
Growing Degree Days 10 (Base 50)    
Moisture  
Dew Point 55 °F    
Average Humidity 81    
Maximum Humidity 100    
Minimum Humidity 46    
Precipitation  
Precipitation 0.54 in 0.11 in 2.26 in (1950)
Month to date precipitation 2.33  
Year to date precipitation 30.64  
Snow  
Snow 0.00 in 0.00 in - ()
Month to date snowfall 0.0  
Since 1 July snowfall 0.0  
Since 1 September snowfall 0.0  
Snow Depth -    
Sea Level Pressure  
Sea Level Pressure 29.77 in    
Wind  
Wind Speed 7 mph (NW)    
Max Wind Speed 15 mph    
Max Gust Speed 22 mph    
Visibility 8 miles    
Events      
T = Trace of Precipitation, MM = Missing Value Source: NWS Daily Summary

Daily Weather History Graph

Daily Weather History Graph

Search for Another Location

Airport or City:

Trip Planner

Search our weather history database for the weather conditions in past years. The results will help you decide how hot, cold, wet, or windy it might be!

Date:

Astronomy

Sep. 21, 2013 Rise Set
Actual Time 7:22 AM EDT 7:33 PM EDT
Civil Twilight 6:54 AM EDT 8:00 PM EDT
Nautical Twilight 6:23 AM EDT 8:32 PM EDT
Astronomical Twilight 5:50 AM EDT 9:05 PM EDT
Moon 8:43 PM EDT (9/21) 9:40 AM EDT (9/21)
Length of Visible Light 13h 05m
Length of Day
12h 11m
Waning Gibbous, 94% of the Moon is Illuminated
Sep 21
Waning Gibbous
Sep 26
Last Quarter
Oct 4
New
Oct 11
First Quarter
Oct 18
Full

Hourly Weather History & Observations

Time (EDT) Temp. Dew Point Humidity Pressure Visibility Wind Dir Wind Speed Gust Speed Precip Events Conditions
12:10 AM 66.2 °F 66.2 °F 100% 29.79 in 2.0 mi WNW 9.2 mph - 0.11 in   Overcast
12:30 AM 64.4 °F 64.4 °F 100% 29.79 in 1.0 mi WNW 4.6 mph - 0.59 in   Overcast
12:50 AM 64.4 °F 64.4 °F 100% 29.79 in 1.8 mi Calm Calm - 0.86 in   Overcast
1:10 AM 64.4 °F 64.4 °F 100% 29.78 in 2.5 mi West 4.6 mph - 0.05 in   Overcast
1:30 AM 64.4 °F 64.4 °F 100% 29.77 in 4.0 mi West 3.5 mph - 0.13 in   Overcast
1:50 AM 64.4 °F 64.4 °F 100% 29.77 in 4.0 mi Calm Calm - 0.20 in   Overcast
2:10 AM 64.4 °F 64.4 °F 100% 29.77 in 5.0 mi SSW 3.5 mph - 0.02 in   Overcast
2:30 AM 64.4 °F 64.4 °F 100% 29.76 in 5.0 mi West 3.5 mph - 0.04 in   Overcast
2:50 AM 64.4 °F 64.4 °F 100% 29.75 in 5.0 mi Calm Calm - 0.06 in   Overcast
3:10 AM 64.4 °F 64.4 °F 100% 29.75 in 5.0 mi West 3.5 mph - 0.00 in   Overcast
3:30 AM 64.4 °F 64.4 °F 100% 29.74 in 5.0 mi WNW 4.6 mph - 0.01 in   Overcast
3:50 AM 64.4 °F 64.4 °F 100% 29.74 in 5.0 mi WNW 6.9 mph - 0.03 in   Overcast
4:10 AM 64.4 °F 64.4 °F 100% 29.73 in 3.0 mi NW 6.9 mph - 0.02 in   Overcast
4:30 AM 64.4 °F 64.4 °F 100% 29.73 in 4.0 mi NW 4.6 mph - 0.04 in   Overcast
4:50 AM 64.4 °F 64.4 °F 100% 29.71 in 4.0 mi Calm Calm - 0.06 in   Overcast
5:10 AM 64.4 °F 64.4 °F 100% 29.72 in 4.0 mi WNW 4.6 mph - 0.00 in   Overcast
5:30 AM 64.4 °F 64.4 °F 100% 29.72 in 3.0 mi West 4.6 mph - 0.01 in   Overcast
5:50 AM 64.4 °F 64.4 °F 100% 29.72 in 3.0 mi West 5.8 mph - 0.03 in   Overcast
6:10 AM 62.6 °F 62.6 °F 100% 29.72 in 4.0 mi NNW 6.9 mph - 0.01 in   Overcast
6:30 AM 60.8 °F 60.8 °F 100% 29.71 in 5.0 mi NNE 4.6 mph - 0.03 in   Overcast
6:50 AM 60.8 °F 60.8 °F 100% 29.70 in 5.0 mi Calm Calm - 0.05 in   Overcast
7:10 AM 60.8 °F 60.8 °F 100% 29.69 in 2.0 mi North 4.6 mph - 0.09 in   Overcast
7:30 AM 60.8 °F 60.8 °F 100% 29.71 in 9.0 mi NW 12.7 mph 21.9 mph 0.09 in   Overcast
7:50 AM 59.0 °F 59.0 °F 100% 29.73 in 7.0 mi NW 10.4 mph 16.1 mph 0.09 in   Overcast
8:10 AM 59.0 °F 59.0 °F 100% 29.73 in 2.5 mi NW 9.2 mph - 0.01 in   Overcast
8:30 AM 59.0 °F 59.0 °F 100% 29.73 in 4.0 mi NW 6.9 mph - 0.02 in   Overcast
8:50 AM 59.0 °F 59.0 °F 100% 29.74 in 7.0 mi NW 9.2 mph - 0.02 in   Overcast
9:10 AM 57.2 °F 57.2 °F 100% 29.74 in 9.0 mi WNW 9.2 mph - 0.00 in   Overcast
9:30 AM 57.2 °F 57.2 °F 100% 29.74 in 10.0 mi WNW 6.9 mph - 0.00 in   Mostly Cloudy
9:50 AM 57.2 °F 57.2 °F 100% 29.75 in 9.0 mi NW 8.1 mph - 0.00 in   Scattered Clouds
10:10 AM 59.0 °F 59.0 °F 100% 29.75 in 9.0 mi NW 9.2 mph - 0.00 in   Mostly Cloudy
10:30 AM 59.0 °F 59.0 °F 100% 29.75 in 9.0 mi WNW 8.1 mph - 0.00 in   Overcast
10:50 AM 57.2 °F 57.2 °F 100% 29.76 in 10.0 mi NW 10.4 mph 19.6 mph 0.00 in   Overcast
11:10 AM 59.0 °F 59.0 °F 100% 29.76 in 10.0 mi NW 11.5 mph - 0.00 in   Mostly Cloudy
11:30 AM 60.8 °F 57.2 °F 88% 29.76 in 10.0 mi NW 11.5 mph 18.4 mph 0.00 in   Mostly Cloudy
11:50 AM 60.8 °F 57.2 °F 88% 29.76 in 10.0 mi WNW 10.4 mph 16.1 mph 0.00 in   Mostly Cloudy
12:10 PM 62.6 °F 57.2 °F 82% 29.76 in 10.0 mi WNW 12.7 mph 19.6 mph 0.00 in   Mostly Cloudy
12:30 PM 64.4 °F 55.4 °F 73% 29.76 in 10.0 mi NW 12.7 mph 20.7 mph 0.00 in   Mostly Cloudy
12:50 PM 64.4 °F 55.4 °F 73% 29.76 in 10.0 mi WNW 15.0 mph 21.9 mph 0.00 in   Scattered Clouds
1:10 PM 64.4 °F 55.4 °F 73% 29.76 in 10.0 mi NW 10.4 mph 16.1 mph 0.00 in   Partly Cloudy
1:30 PM 64.4 °F 53.6 °F 68% 29.76 in 10.0 mi WNW 9.2 mph - 0.00 in   Partly Cloudy
1:50 PM 66.2 °F 55.4 °F 68% 29.75 in 10.0 mi NW 13.8 mph 17.3 mph 0.00 in   Scattered Clouds
2:10 PM 66.2 °F 51.8 °F 60% 29.76 in 10.0 mi NW 11.5 mph 19.6 mph 0.00 in   Scattered Clouds
2:30 PM 64.4 °F 53.6 °F 68% 29.76 in 10.0 mi NW 9.2 mph - 0.00 in   Mostly Cloudy
2:50 PM 66.2 °F 51.8 °F 60% 29.76 in 10.0 mi NW 8.1 mph 20.7 mph 0.00 in   Mostly Cloudy
3:10 PM 66.2 °F 51.8 °F 60% 29.76 in 10.0 mi NW 13.8 mph 19.6 mph 0.00 in   Mostly Cloudy
3:30 PM 68.0 °F 50.0 °F 52% 29.76 in 10.0 mi NW 15.0 mph 19.6 mph 0.00 in   Scattered Clouds
3:50 PM 66.2 °F 48.2 °F 52% 29.76 in 10.0 mi NW 12.7 mph 19.6 mph 0.00 in   Partly Cloudy
4:10 PM 66.2 °F 50.0 °F 56% 29.76 in 10.0 mi NW 8.1 mph - 0.00 in   Scattered Clouds
4:30 PM 66.2 °F 48.2 °F 52% 29.77 in 10.0 mi NW 11.5 mph 19.6 mph 0.00 in   Mostly Cloudy
4:50 PM 68.0 °F 46.4 °F 46% 29.77 in 10.0 mi WNW 13.8 mph 18.4 mph 0.00 in   Mostly Cloudy
5:10 PM 66.2 °F 48.2 °F 52% 29.77 in 10.0 mi NW 10.4 mph - 0.00 in   Mostly Cloudy
5:30 PM 68.0 °F 46.4 °F 46% 29.77 in 10.0 mi NW 13.8 mph 19.6 mph 0.00 in   Partly Cloudy
5:50 PM 66.2 °F 46.4 °F 49% 29.77 in 10.0 mi WNW 13.8 mph - 0.00 in   Clear
6:10 PM 66.2 °F 44.6 °F 46% 29.78 in 10.0 mi WNW 6.9 mph - 0.00 in   Clear
6:30 PM 66.2 °F 44.6 °F 46% 29.78 in 10.0 mi WNW 10.4 mph 16.1 mph 0.00 in   Clear
6:50 PM 64.4 °F 44.6 °F 49% 29.79 in 10.0 mi WNW 9.2 mph - 0.00 in   Clear
7:10 PM 62.6 °F 46.4 °F 55% 29.79 in 10.0 mi NNW 9.2 mph - 0.00 in   Clear
7:30 PM 60.8 °F 46.4 °F 59% 29.79 in 10.0 mi NW 6.9 mph - 0.00 in   Clear
7:50 PM 60.8 °F 46.4 °F 59% 29.80 in 10.0 mi NW 6.9 mph - 0.00 in   Clear
8:10 PM 60.8 °F 46.4 °F 59% 29.80 in 10.0 mi NW 5.8 mph - 0.00 in   Clear
8:30 PM 57.2 °F 46.4 °F 67% 29.81 in 10.0 mi NW 3.5 mph - 0.00 in   Clear
8:50 PM 57.2 °F 46.4 °F 67% 29.82 in 10.0 mi NW 6.9 mph - 0.00 in   Clear
9:10 PM 57.2 °F 46.4 °F 67% 29.83 in 10.0 mi NW 8.1 mph - 0.00 in   Clear
9:30 PM 57.2 °F 46.4 °F 67% 29.84 in 10.0 mi NW 9.2 mph - 0.00 in   Clear
9:50 PM 55.4 °F 46.4 °F 72% 29.85 in 10.0 mi NW 9.2 mph - 0.00 in   Clear
10:10 PM 55.4 °F 46.4 °F 72% 29.85 in 10.0 mi NW 6.9 mph - 0.00 in   Clear
10:30 PM 55.4 °F 46.4 °F 72% 29.85 in 10.0 mi NW 5.8 mph - 0.00 in   Clear
10:50 PM 53.6 °F 46.4 °F 77% 29.86 in 10.0 mi NW 5.8 mph - 0.00 in   Clear
11:10 PM 53.6 °F 46.4 °F 77% 29.87 in 10.0 mi NW 3.5 mph - 0.00 in   Clear
11:30 PM 51.8 °F 46.4 °F 82% 29.87 in 10.0 mi Calm Calm - 0.00 in   Clear
11:50 PM 51.8 °F 46.4 °F 82% 29.88 in 10.0 mi Calm Calm - 0.00 in   Clear